COSMOS 1275 DEB, 42175

Orbit data source: Space-Track

COSMOS 1275 DEB, 42175 is space debris in LEO originally from a launch on Thu, 04 Jun 1981 UTC launched from the Plesetsk Missile And Space Complex (PKMTR). Debris objects in space refer to the collection of defunct objects orbiting the Earth. Examples of debris include non-operational satellites, rocket bodies, and fragments generated from explosions, collisions, or faulty payload assembly.

Loading next visibility...
Identifier
42175, 1981-053SP
Orbit
LEO
Country
Flag of CISCIS
Related business
Manufacturer
Unknown
Mission
Spacecraft
Bus & Motor
Unknown
Mass
Unknown
Launch date (UTC)
1981-06-04 (45 years ago)
Launch vehicle
Unknown
Launch site
Plesetsk Missile And Space Complex (PKMTR)
Object type
Payload
Rocket body
Debris
Shape & HBR
Unknown shape, 0.1 m
Radar Cross Section
Small (<0.1 m²)

Expand to show TLE details & history
Last TLE update: 1 day ago

TLE from 1 day ago
0 COSMOS 1275 DEB
1 42175U 81053SP  25351.64069740  .00000162  00000-0  22056-3 0  9995
2 42175  83.0294 312.2408 0139665 350.5133 131.4265 13.49696148594817
Epoch: 2025-12-17T15:22Z
TLE epoch observation values (Epoch: 2025-12-17T15:22:36.255Z)
Latitude
56.32455°
Longitude
164.56289°
Altitude
1,152.447 km
Speed
7.248 km/s
True Right ascension
08h 06m 53s
True Declination
56° 10' 26"
Sunlit
Object was in full shadow at epoch
Visualization orbit readout
Latitude
Unknown
Longitude
Unknown
Altitude
Unknown
Speed
Unknown
Apparent Right ascension
Unknown
Apparent Declination
Unknown
Sunlit
N/A
Visualization observer readout
Local Sidereal Time
21:26:15
Azimuth
Unknown
Elevation
Unknown
Doppler factor
Unknown
Orbital elements
Apogee altitude
1,174.589 km
Perigee altitude
966.524 km
Semi-major axis
7,448.694 km
Eccentricity
0.01397
Inclination
83.0294°
RAAN
312.2408°
Arg. of periapsis
350.5133°
True anomaly
132.61273°
Mean anomaly
131.4265°
Eccentric anomaly
132.02098°
Mean motion
3.37616 °/min
Orbital period
106.63 mins
BSTAR
0.00022056
Loading maneuver chart data...
Computing Atmospheric mass density...
Loading historical data...
Loading historical data...
Loading historical data...
Loading historical data...
Loading historical data...
Loading historical data...
Loading historical data...

Documentation

Showing up to 5 results
|